Location: Aciu?a
(46.2833°N, 22.4500°E)
Time: 13:32:38
(UTC+00:00)

H-2A R/B - Pass Details

Date: 25 October 2021
Orbit: 577 x 653 km, 98.5° (Epoch: 06 December)

Event Time Altitude Azimuth Distance (km) Brightness Sun altitude
Exits shadow 17:30:50 63° 143° (SE) 663 1.9 -22.1°
Drops below altitude 10° 17:34:36 10° 187° (S) 1,938 4.6 -22.7°
Sets 17:36:47 0° 190° (S) 2,849 5.5 -23.1°
